Location: Palo Alto
(37.4420°N, 122.1420°W)
Time: 09:18:58
(UTC-07:00)

X-37B - Pass Details

Date: 12 August 2020
Orbit: 386 x 387 km, 45.0° (Epoch: 18 September)

Event Time Altitude Azimuth Distance (km) Brightness Sun altitude
Rises 22:23:50 0° 298° (WNW) 2,265 5.7 -24.5°
Reaches altitude 10° 22:26:11 10° 315° (NW) 1,410 4.5 -24.9°
Enters shadow 22:28:11 21° 352° (N) 928 3.0 -25.1°
